Location: St Paul
(33.9360°N, 83.4200°W)
Time: 07:25:52
(UTC-04:00)

Cosmos 1697 Rocket - Pass Details

Date: 06 October 2017
Orbit: 831 x 845 km, 71.0° (Epoch: 23 October)

Event Time Altitude Azimuth Distance (km) Brightness Sun altitude
Rises 20:19:29 0° 339° (NNW) 3,406 6.2 -15.1°
Reaches altitude 10° 20:21:57 10° 339° (NNW) 2,467 5.4 -15.6°
Maximum altitude 20:27:38 89° 67° (ENE) 846 2.6 -16.7°
Drops below altitude 10° 20:33:15 10° 161° (SSE) 2,445 4.9 -17.9°
Sets 20:35:41 0° 161° (SSE) 3,374 5.6 -18.4°
Enters shadow 20:35:45 - 161° (SSE) 3,405 5.6 -18.4°
